SKYNET 5A

Last updated on Sat Sep 05 2026 00:03:01 GMT+0000 (Coordinated Universal Time)

1 30794U 07007B 26247.54347830 -.00000279 00000+0 00000+0 0 9999 2 30794 5.4964 72.7348 0003372 96.6921 105.1193 1.00271637 71490
UTC large
Height (km)
Speed (km/s)
/
Latitude / Longitude
Inclination (degrees)
Orbital Period (minutes)
Azimuth
Elevation
Range (km)
Doppler Factor

Next 0 passes for location: London (51.5072 / 0.1276)

No passes found over London.
SKYNET 5A